This is the latest recevied weather packets stored in our database for station/object ZS1BR-13. If no packets are shown the sender has not sent any weather packets the latest 10 day(s).
| Time | Temp. | Humidity | Pressure | Rain* | Wind** | Luminosity | Snow |
|---|---|---|---|---|---|---|---|
| 1777915525 | 19.44° C | 63% | 1014.5 hPa | 0 mm | - | - | - |
| 1777914918 | 19.44° C | 63% | 1014.4 hPa | 0 mm | - | - | - |
| 1777914371 | 20° C | 63% | 1014.4 hPa | 0 mm | - | - | - |
| 1777913764 | 20° C | 63% | 1014.4 hPa | 0 mm | - | - | - |
| 1777913157 | 20° C | 62% | 1014.2 hPa | 0 mm | - | - | - |
| 1777912550 | 20° C | 62% | 1014.2 hPa | 0 mm | - | - | - |
| 1777911944 | 20° C | 62% | 1014.2 hPa | 0 mm | - | - | - |
| 1777911334 | 20° C | 62% | 1014.1 hPa | 0 mm | - | - | - |
| 1777910727 | 20° C | 61% | 1014.1 hPa | 0 mm | - | - | - |
| 1777910120 | 20.56° C | 61% | 1014.1 hPa | 0 mm | - | - | - |
| 1777909573 | 20.56° C | 60% | 1014.1 hPa | 0 mm | - | - | - |
| 1777908967 | 20.56° C | 59% | 1014.2 hPa | 0 mm | - | - | - |
| 1777908359 | 20.56° C | 58% | 1014.1 hPa | 0 mm | - | - | - |
| 1777907752 | 20.56° C | 56% | 1014.1 hPa | 0 mm | - | - | - |
| 1777907145 | 21.11° C | 55% | 1013.9 hPa | 0 mm | - | - | - |
| 1777906538 | 21.11° C | 54% | 1013.7 hPa | 0 mm | - | - | - |
| 1777905931 | 21.11° C | 53% | 1013.7 hPa | 0 mm | - | - | - |
| 1777905324 | 21.67° C | 53% | 1013.6 hPa | 0 mm | - | - | - |
| 1777904777 | 21.67° C | 54% | 1013.5 hPa | 0 mm | - | - | - |
| 1777904170 | 21.67° C | 54% | 1013.4 hPa | 0 mm | - | - | - |
| 1777903562 | 21.67° C | 54% | 1013.3 hPa | 0 mm | - | - | - |
| 1777902955 | 21.67° C | 54% | 1013.2 hPa | 0 mm | - | - | - |
| 1777902349 | 21.67° C | 53% | 1013.2 hPa | 0 mm | - | - | - |
| 1777901742 | 22.22° C | 54% | 1013.2 hPa | 0 mm | - | - | - |
| 1777901135 | 21.67° C | 54% | 1013.2 hPa | 0 mm | - | - | - |
* Rain latest hour (hover to see other rain measurements)
** Current wind speed in m/s (hover to see current wind gust speed)